This demonstration page uses our WeatherBlox Daily Observations layout. Learn more.

Left ArrowRight Arrow

Hourly Observations for March 26, 2020

Temp ( °F °C ) Dew Point ( °F °C ) Humidity (%) Winds ( mph kmh ) Pressure ( in mb ) Visibility ( mi km ) Precip ( " mm )
12:53 am 00:53 Clear 47 8.3 40 4.4 77 77 N N/A 29.96 1015 10 16.0934 N/A
1:53 am 01:53 Clear 47 8.3 40 4.4 77 77 E 5 7 29.94 1014 10 16.0934 N/A
2:53 am 02:53 Clear 48 8.9 42 5.6 80 80 ESE 3 6 29.93 1013 10 16.0934 N/A
3:53 am 03:53 Clear 45 7.2 42 5.6 90 90 N N/A 29.93 1014 9 14.48406 N/A
4:53 am 04:53 Clear 43 6.1 40 4.4 89 89 E 3 6 29.92 1013 9 14.48406 N/A
5:53 am 05:53 Clear 43 6.1 40 4.4 89 89 N N/A 29.92 1013 10 16.0934 N/A
6:53 am 06:53 Clear 42 5.6 39 3.9 89 89 N N/A 29.93 1013 10 16.0934 N/A
7:53 am 07:53 Sunny 43 6.1 40 4.4 89 89 ESE 5 7 29.93 1014 10 16.0934 N/A
8:53 am 08:53 Sunny 49 9.4 44 6.7 83 83 E 5 7 29.92 1013 10 16.0934 N/A
9:53 am 09:53 Sunny 56 13.3 44 6.7 65 65 VRB 3 6 29.92 1013 10 16.0934 N/A
10:53 am 10:53 Sunny 61 16.1 48 8.9 63 63 VRB 6 9 29.92 1013 10 16.0934 N/A
11:53 am 11:53 Sunny 62 16.7 49 9.4 62 62 WSW 12 19 29.93 1013 10 16.0934 N/A
12:53 pm 12:53 Sunny 65 18.3 50 10 59 59 VRB 5 7 29.89 1012 10 16.0934 N/A
1:53 pm 13:53 Sunny 67 19.4 50 10 55 55 VRB 5 7 29.86 1011 10 16.0934 N/A
2:53 pm 14:53 Sunny 70 21.1 49 9.4 47 47 SSW 10 17 29.81 1010 10 16.0934 N/A
3:53 pm 15:53 Mostly Sunny 70 21.1 49 9.4 47 47 SSW 9 15 29.76 1008 10 16.0934 N/A
4:53 pm 16:53 Mostly Cloudy 69 20.6 50 10 51 51 SSW 7 11 29.78 1008 10 16.0934 N/A
5:53 pm 17:53 Mostly Sunny 69 20.6 52 11.1 55 55 SW 6 9 29.72 1006 10 16.0934 0.001 0.001
6:53 pm 18:53 Partly Cloudy 67 19.4 53 11.7 61 61 VRB 3 6 29.71 1006 10 16.0934 N/A
7:53 pm 19:53 Cloudy 63 17.2 55 12.8 76 76 N N/A 29.74 1007 10 16.0934 N/A
8:53 pm 20:53 Cloudy 63 17.2 54 12.2 73 73 NNE 5 7 29.72 1007 10 16.0934 N/A
9:53 pm 21:53 Cloudy 63 17.2 54 12.2 73 73 N 3 6 29.72 1007 10 16.0934 N/A
10:53 pm 22:53 Cloudy 61 16.1 53 11.7 75 75 NNW 7 11 29.75 1007 10 16.0934 N/A
11:53 pm 23:53 Mostly Cloudy 61 16.1 52 11.1 72 72 N 8 13 29.76 1008 10 16.0934 N/A

Powered by AerisWeather